Tracking 20093 objects as of 14-Dec-2019
HD Live streaming from Space Station
objects crossing your sky now

FENGYUN 1C DEB

Track FENGYUN 1C DEB now!
10-day predictions


NORAD ID: 30892
Int'l Code: 1999-025AYE
Perigee: 818.5 km
Apogee: 877.9 km
Inclination: 99.7 °
Period: 101.7 minutes
Semi major axis: 7219 km
RCS: 0.0064 m2 (small)
Launch date: May 10, 1999
Source: People's Republic of China (PRC)
Launch site: Taiyaun Space Center, China (TSC)

Note: This is SATELLITE DEBRIS
aabbcc
Your satellite tracking list
Your tracking list is empty




NASA's NSSDC Master Catalog

Two Line Element Set (TLE):
1 30892U 99025AYE 19347.47960126 +.00000136 +00000-0 +95134-4 0  9992
2 30892 099.6520 069.4235 0041190 158.2930 201.9998 14.15364923332810
Source of the keplerian elements: AFSPC